CAPE
0 0 0 0 0 0 0 0 0 0 0 0 0 0 0 0 0 0 0 0 0 0 0 0 0 7 0 219 26 134 2 166 150 34 169 280 83 197 271 421 447 492 546 1193 1520
0 0 0 0 0 0 0 0 0 0 0 0 0 0 0 0 0 0 0 0 0 0 0 0 0 0 0 13 47 224 12 97 70 86 133 233 202 447 233 708 682 676 1317 1515 1667
0 0 0 0 0 0 0 0 0 0 0 0 0 0 0 0 0 0 0 0 0 0 0 0 0 0 0 28 216 251 105 23 0 68 206 260 359 461 506 475 542 745 1269 1425 1513
0 0 0 0 0 0 0 0 0 0 0 0 0 0 0 0 0 0 0 0 0 0 0 0 0 0 0 155 94 199 49 11 1 0 131 362 326 447 506 570 716 841 1233 1344 1421
0 0 0 0 0 0 0 0 0 0 0 0 0 0 0 0 0 0 0 0 0 0 0 0 0 0 37 155 103 138 61 0 0 0 112 271 396 588 694 693 825 952 1214 1342 1364
0 0 0 0 0 0 0 0 0 0 0 0 0 0 0 0 0 0 0 0 0 0 0 0 0 0 4 85 111 67 2 5 0 0 21 239 347 529 890 1147 874 1013 1251 1269 1282
0 0 0 0 0 0 0 0 0 0 0 0 0 0 0 0 0 0 0 0 0 0 0 0 0 0 88 97 48 25 0 0 0 2 38 104 201 466 1440 1354 1173 1147 1335 1332 1401
0 0 0 0 0 0 0 0 0 0 0 0 0 0 0 0 0 0 0 0 0 0 0 0 0 0 0 38 26 37 46 133 19 0 8 17 10 163 1101 1409 1521 1322 1406 1513 1602
0 0 0 0 0 0 0 0 0 0 0 0 0 0 0 0 0 0 0 0 0 0 0 0 0 0 15 64 138 73 61 50 53 0 4 11 23 246 715 1258 1664 1629 1574 1574 1885
0 0 0 0 0 0 0 0 0 0 0 0 0 0 0 0 0 0 0 0 0 0 0 0 0 0 0 132 253 160 204 179 24 0 0 0 52 157 226 734 1414 1874 1787 1697 2060
0 0 1 1 0 0 0 0 0 0 0 0 0 0 0 0 0 0 0 0 0 0 0 0 0 0 2 33 87 43 40 84 8 0 0 19 160 248 277 421 907 1757 2095 1943 2120
0 1 1 0 0 0 0 0 0 0 0 0 0 0 0 0 0 0 0 0 0 0 0 0 0 0 0 13 52 50 75 50 49 0 0 172 166 192 163 360 625 1304 1956 2215 2156
1 2 1 0 0 0 0 0 0 0 0 0 0 0 0 0 0 0 0 0 0 0 0 0 0 0 0 3 19 16 93 141 59 23 0 35 86 264 207 254 610 700 1326 2055 2316
2 3 1 1 0 0 0 0 0 0 0 0 0 0 0 0 0 0 0 0 0 0 0 0 0 0 0 0 0 43 60 21 1 3 64 71 139 266 343 145 164 416 872 1770 2337
3 3 2 1 0 0 0 0 0 0 0 0 0 0 0 0 0 0 0 0 0 0 0 0 0 0 0 0 0 0 0 0 0 4 43 135 114 298 187 67 287 703 1202 1394 2266
3 2 1 0 0 0 0 0 0 0 0 0 0 0 0 0 0 0 0 0 0 0 0 0 0 0 0 0 0 0 0 0 1 15 59 92 108 182 242 407 291 1054 1597 1650 2162
2 1 0 0 0 0 0 0 0 0 0 0 0 0 0 0 0 0 0 0 0 0 0 0 0 0 0 0 0 0 2 61 65 67 62 137 103 102 321 408 379 834 1961 1893 2207
0 1 0 0 0 0 0 0 0 0 0 0 0 0 0 0 0 0 0 0 0 0 0 0 0 0 0 0 0 0 1 73 182 235 176 149 29 63 243 316 952 1182 1369 2079 2124
0 0 0 0 0 0 0 0 0 0 0 0 0 0 0 0 0 0 0 0 0 0 0 0 0 0 0 0 0 5 5 14 89 127 181 141 127 249 142 312 1083 1710 2284 2266 2537
0 0 0 0 0 0 0 0 0 0 0 0 0 0 0 0 0 0 0 0 0 0 0 0 1 0 0 0 0 22 83 45 88 111 261 197 143 411 249 412 1379 2312 2934 3039 3022
0 0 0 0 0 0 0 0 0 0 0 0 0 0 0 0 0 0 0 0 0 0 0 0 8 45 0 3 27 15 119 132 201 290 297 120 253 342 375 1062 1650 2193 3017 2997 2615
0 0 0 0 0 0 0 0 0 0 0 0 0 0 0 0 0 0 0 0 0 0 0 0 2 27 29 12 0 63 128 82 213 300 276 198 182 39 731 1044 1498 2256 2540 2642 2712
0 0 0 0 0 0 0 0 0 0 0 0 0 0 0 0 0 0 0 0 0 0 0 0 0 26 24 22 20 47 177 240 300 363 346 482 231 405 728 1124 1366 2154 2219 2456 2889
0 0 0 0 0 0 0 0 0 0 0 0 0 0 0 0 0 0 0 0 0 0 121 0 0 2 89 86 118 121 40 43 109 284 387 252 413 345 341 1332 1708 2092 2258 2285 2712
0 0 0 0 0 0 0 0 0 0 0 0 0 0 0 0 0 0 0 2 7 0 0 0 0 0 7 15 60 120 120 157 74 143 374 414 94 774 981 1377 1822 1753 1733 1464 1891
0 0 0 0 0 0 0 0 0 0 0 0 0 0 0 0 0 9 12 36 84 41 29 0 1 17 4 2 0 30 154 257 191 183 205 167 403 33 1039 1588 1599 1579 1386 1498 1691
0 0 0 0 0 0 1 0 0 0 0 0 0 0 0 0 0 0 0 3 137 415 342 126 98 129 57 34 16 6 29 263 284 277 429 475 1202 399 1588 1680 1660 1524 1450 1452 1415
CIN
-0 -0 -0 -0 -0 -0 -0 -0 -0 -0 -0 -0 -0 -0 -0 -0 -0 -0 -0 -0 -0 -0 -0 -0 -0 -78 -0 -47 -52 -15 -11 -189 -0 -33 -0 -1 -12 -16 -17 -22 -31 -31 -25 -15 -29
-0 -0 -0 -0 -0 -0 -0 -0 -0 -0 -0 -0 -0 -0 -0 -0 -0 -0 -0 -0 -0 -0 -0 -0 -0 -0 -0 -17 -29 -2 -107 -70 -1 -1 -0 -0 -0 -0 -1 -12 -30 -56 -31 -46 -36
-0 -0 -0 -0 -0 -0 -0 -0 -0 -0 -0 -0 -0 -0 -0 -0 -0 -0 -0 -0 -0 -0 -0 -0 -0 -0 -0 -16 -1 -0 -3 -0 -0 -4 -2 -0 -1 -0 -1 -0 -16 -34 -55 -52 -46
-0 -0 -0 -0 -0 -0 -0 -0 -0 -0 -0 -0 -0 -0 -0 -0 -0 -0 -0 -0 -0 -0 -0 -0 -0 -0 -0 -0 -0 -0 -17 -30 -0 -0 -2 -1 -0 -0 -0 -5 -13 -34 -59 -60 -44
-0 -0 -0 -0 -0 -0 -0 -0 -0 -0 -0 -0 -0 -0 -0 -0 -0 -0 -0 -0 -0 -0 -0 -0 -0 -0 -21 -3 -0 -3 -10 -0 -0 -0 -0 -1 -0 -0 -0 -9 -19 -46 -62 -54 -39
-0 -0 -0 -0 -0 -0 -0 -0 -0 -0 -0 -0 -0 -0 -0 -0 -0 -0 -0 -0 -0 -0 -0 -0 -0 -0 -14 -10 -2 -10 -17 -0 -0 -0 -44 -7 -0 -0 -0 -10 -23 -47 -53 -50 -48
-0 -0 -0 -0 -0 -0 -0 -0 -0 -0 -0 -0 -0 -0 -0 -0 -0 -0 -0 -0 -0 -0 -0 -0 -0 -0 -21 -8 -33 -29 -0 -0 -0 -41 -26 -10 -0 -1 -2 -6 -27 -33 -37 -43 -49
-0 -0 -0 -0 -0 -0 -0 -0 -0 -0 -0 -0 -0 -0 -0 -0 -0 -0 -0 -0 -0 -0 -0 -0 -0 -0 -4 -46 -34 -25 -2 -1 -8 -0 -75 -31 -50 -176 -2 -5 -11 -27 -39 -38 -50
-0 -0 -0 -0 -0 -0 -0 -0 -0 -0 -0 -0 -0 -0 -0 -0 -0 -0 -0 -0 -0 -0 -0 -0 -0 -0 -53 -15 -1 -3 -16 -63 -0 -0 -5 -60 -43 -0 -0 -0 -2 -24 -32 -39 -39
-0 -0 -0 -0 -0 -0 -0 -0 -0 -0 -0 -0 -0 -0 -0 -0 -0 -0 -0 -0 -0 -0 -0 -0 -0 -0 -0 -4 -0 -0 -0 -3 -12 -0 -0 -0 -7 -1 -2 -0 -1 -0 -24 -35 -25
-0 -0 -0 -0 -0 -0 -0 -0 -0 -0 -0 -0 -0 -0 -0 -0 -0 -0 -0 -0 -0 -0 -0 -0 -0 -0 -2 -15 -1 -12 -1 -1 -1 -0 -0 -10 -1 -1 -1 -0 -0 -0 -6 -20 -5
-0 -0 -0 -0 -0 -0 -0 -0 -0 -0 -0 -0 -0 -0 -0 -0 -0 -0 -0 -0 -0 -0 -0 -0 -0 -0 -0 -60 -18 -35 -20 -10 -2 -0 -0 -0 -0 -0 -1 -0 -0 -2 -0 -0 -0
-0 -0 -0 -0 -0 -0 -0 -0 -0 -0 -0 -0 -0 -0 -0 -0 -0 -0 -0 -0 -0 -0 -0 -0 -0 -0 -0 -57 -60 -57 -2 -0 -4 -23 -0 -18 -16 -0 -5 -6 -4 -8 -0 -0 -0
-0 -0 -0 -0 -0 -0 -0 -0 -0 -0 -0 -0 -0 -0 -0 -0 -0 -0 -0 -0 -0 -0 -0 -0 -0 -0 -0 -0 -0 -39 -6 -37 -1 -50 -4 -7 -0 -1 -1 -0 -3 -1 -1 -0 -0
-0 -0 -0 -0 -0 -0 -0 -0 -0 -0 -0 -0 -0 -0 -0 -0 -0 -0 -0 -0 -0 -0 -0 -0 -0 -0 -0 -0 -0 -0 -0 -0 -0 -50 -13 -0 -0 -0 -7 -11 -0 -0 -9 -3 -8
-0 -0 -0 -0 -0 -0 -0 -0 -0 -0 -0 -0 -0 -0 -0 -0 -0 -0 -0 -0 -0 -0 -0 -0 -0 -0 -0 -0 -0 -0 -0 -0 -14 -41 -10 -0 -0 -0 -1 -1 -3 -0 -9 -8 -1
-0 -0 -0 -0 -0 -0 -0 -0 -0 -0 -0 -0 -0 -0 -0 -0 -0 -0 -0 -0 -0 -0 -0 -0 -0 -0 -0 -0 -0 -0 -43 -17 -11 -9 -6 -4 -8 -0 -6 -19 -17 -1 -0 -6 -0
-0 -0 -0 -0 -0 -0 -0 -0 -0 -0 -0 -0 -0 -0 -0 -0 -0 -0 -0 -0 -0 -0 -0 -0 -0 -0 -0 -0 -0 -0 -4 -2 -0 -0 -0 -11 -21 -7 -29 -30 -14 -8 -3 -0 -1
-0 -0 -0 -0 -0 -0 -0 -0 -0 -0 -0 -0 -0 -0 -0 -0 -0 -0 -0 -0 -0 -0 -0 -0 -0 -0 -0 -0 -0 -9 -56 -36 -0 -4 -5 -0 -4 -2 -43 -10 -2 -0 -0 -0 -0
-0 -0 -0 -0 -0 -0 -0 -0 -0 -0 -0 -0 -0 -0 -0 -0 -0 -0 -0 -0 -0 -0 -0 -0 -31 -0 -0 -0 -0 -51 -24 -31 -33 -10 -0 -0 -0 -0 -19 -0 -0 -0 -0 -3 -8
-0 -0 -0 -0 -0 -0 -0 -0 -0 -0 -0 -0 -0 -0 -0 -0 -0 -0 -0 -0 -0 -0 -0 -0 -66 -1 -0 -73 -49 -56 -28 -11 -0 -3 -0 -16 -0 -3 -2 -1 -0 -4 -9 -9 -11
-0 -0 -0 -0 -0 -0 -0 -0 -0 -0 -0 -0 -0 -0 -0 -0 -0 -0 -0 -0 -0 -0 -0 -0 -32 -13 -12 -58 -0 -8 -4 -30 -1 -1 -4 -13 -0 -30 -3 -13 -2 -8 -26 -24 -19
-0 -0 -0 -0 -0 -0 -0 -0 -0 -0 -0 -0 -0 -0 -0 -0 -0 -0 -0 -0 -0 -0 -0 -0 -0 -29 -21 -3 -48 -44 -26 -1 -0 -0 -2 -0 -0 -13 -14 -14 -10 -25 -36 -59 -42
-0 -0 -0 -0 -0 -0 -0 -0 -0 -0 -0 -0 -0 -0 -0 -0 -0 -0 -0 -0 -0 -0 -276 -0 -0 -17 -0 -4 -0 -7 -38 -30 -13 -0 -0 -1 -21 -18 -4 -8 -32 -60 -60 -63 -62
-0 -0 -0 -0 -0 -0 -0 -0 -0 -0 -0 -0 -0 -0 -0 -0 -0 -0 -0 -0 -43 -0 -0 -0 -0 -0 -41 -20 -0 -0 -5 -18 -23 -23 -0 -16 -57 -36 -0 -9 -40 -63 -88 -88 -76
-0 -0 -0 -0 -0 -0 -0 -0 -0 -0 -0 -0 -0 -0 -0 -0 -0 -0 -3 -0 -1 -14 -52 -0 -22 -44 -39 -29 -0 -7 -0 -0 -4 -14 -16 -11 -49 -673 -87 -52 -62 -82 -83 -91 -80
-0 -0 -0 -0 -0 -0 -0 -0 -0 -0 -0 -0 -0 -0 -0 -0 -0 -0 -0 -11 -18 -11 -4 -6 -8 -14 -21 -23 -19 -12 -11 -0 -0 -0 -2 -0 -35 -189 -33 -57 -79 -83 -79 -73 -73
Wind_Speed
17 17 16 16 15 15 15 15 16 16 17 18 17 17 15 16 18 8 6 5 2 5 4 11 11 12 12 17 15 16 11 10 8 5 20 9 16 14 10 10 12 7 9 18 17
18 18 18 18 17 16 15 15 16 17 17 17 17 16 15 14 9 16 5 7 3 5 10 12 12 13 13 14 12 6 5 11 13 6 17 6 17 6 13 9 10 10 14 16 17
17 18 19 19 19 19 18 17 17 17 17 18 17 17 14 15 11 10 8 6 6 8 15 9 13 12 15 14 11 10 6 7 8 7 5 15 13 7 12 8 11 13 15 15 15
18 19 19 20 20 20 20 19 18 18 18 17 17 17 15 9 3 9 7 8 8 12 11 12 13 14 19 13 3 12 4 5 10 7 4 3 14 11 6 10 11 16 16 15 15
17 18 19 20 20 21 21 20 19 19 18 18 17 15 11 10 2 13 8 11 12 14 13 14 16 17 22 6 5 15 5 4 6 5 3 4 4 9 5 9 11 15 16 15 14
18 18 19 20 21 21 20 20 20 19 18 17 15 14 9 12 4 5 2 6 7 10 9 12 12 9 15 7 9 3 3 4 6 9 5 11 10 8 12 11 14 15 15 13 13
19 19 19 21 22 22 22 22 20 19 17 14 11 8 10 8 3 3 6 7 2 7 8 3 7 13 12 9 4 7 13 12 11 10 9 9 2 14 14 14 15 15 14 12 12
20 21 21 21 22 22 22 23 22 18 14 11 6 11 11 4 5 6 9 9 8 9 8 5 8 13 11 5 9 16 19 14 14 8 6 8 18 46 17 14 15 15 14 14 13
20 21 21 22 22 23 24 24 22 15 10 10 8 9 9 4 10 10 7 10 8 9 8 7 12 14 12 14 17 16 5 16 13 3 4 9 3 13 12 13 13 14 14 14 13
19 20 20 22 23 23 26 19 6 10 9 10 8 9 8 5 2 4 5 7 9 8 9 12 11 14 15 17 16 13 12 24 2 6 8 11 10 9 8 12 13 15 14 14 14
20 20 21 22 23 22 18 6 9 9 12 14 4 11 2 3 5 10 8 10 11 11 13 14 13 16 20 19 21 14 11 8 2 5 9 12 12 8 13 7 10 13 15 14 15
21 21 22 23 24 23 11 8 8 7 10 12 13 12 6 3 6 9 9 11 12 14 14 7 15 19 20 11 9 10 10 10 6 2 9 7 10 10 2 7 7 13 15 16 16
21 21 22 23 25 11 8 7 8 7 9 11 12 14 14 13 13 12 13 14 10 13 14 15 9 19 6 10 11 14 15 12 9 8 11 8 13 9 9 6 6 8 12 16 17
19 20 21 27 7 4 6 3 7 4 8 14 11 9 9 10 17 13 13 9 9 11 13 13 13 5 9 16 15 16 16 15 5 9 14 8 7 12 13 11 11 9 11 12 17
20 20 19 11 13 8 7 6 6 5 8 7 12 6 8 14 3 17 12 12 13 12 6 14 13 10 14 16 14 16 5 8 11 13 15 8 8 7 7 7 7 2 0 11 17
20 19 20 7 9 9 7 7 6 9 11 9 8 12 15 17 13 6 13 13 10 10 10 19 3 13 17 15 10 13 7 7 10 13 14 12 11 7 3 8 4 9 4 10 15
21 18 10 9 2 6 7 8 9 12 5 9 11 12 16 16 20 15 16 18 13 11 13 14 12 12 12 7 13 11 13 9 12 12 13 5 3 8 7 8 4 5 7 9 13
22 17 10 9 7 7 7 10 12 12 22 4 2 9 10 14 18 18 15 16 19 16 13 13 15 17 13 18 12 15 17 12 12 9 4 8 5 4 10 6 6 7 7 12 11
25 8 9 6 5 6 9 12 12 13 5 4 12 13 15 8 12 19 19 18 18 18 12 6 15 17 15 15 17 16 17 18 11 11 9 8 11 11 9 9 5 10 10 10 10
8 6 5 2 6 8 10 16 10 4 7 6 15 12 14 15 14 16 17 17 16 16 14 8 11 11 14 9 9 14 7 13 8 11 12 8 2 8 9 11 10 10 9 9 9
8 7 8 6 7 8 12 17 14 4 5 9 11 8 14 4 7 15 12 11 14 14 11 16 8 11 11 13 15 12 12 10 15 8 6 6 5 14 9 12 11 8 8 9 9
7 4 7 6 8 10 12 12 5 7 9 9 6 10 9 5 10 16 12 6 12 13 18 18 9 13 13 15 21 20 16 16 11 12 7 12 2 9 11 8 10 9 7 4 3
5 4 5 8 7 8 7 4 8 8 11 7 9 5 1 6 5 11 8 10 1 13 11 14 10 12 16 10 8 12 16 10 11 11 12 8 5 10 10 11 8 10 8 6 4
6 6 6 8 8 11 8 10 12 10 12 8 9 7 7 10 9 7 8 4 6 11 10 7 12 13 12 15 12 19 18 18 16 14 11 13 11 5 8 12 9 9 7 7 5
5 2 6 7 9 7 0 4 9 9 10 7 11 15 14 11 11 11 13 9 9 5 8 9 12 16 19 18 15 10 15 18 17 18 17 3 17 3 9 11 10 8 7 6 5
6 5 5 3 1 7 7 6 6 3 5 10 13 14 17 15 14 9 10 6 9 14 11 16 13 15 18 18 20 13 15 7 14 19 22 7 14 5 10 9 9 7 6 5 4
2 3 7 9 8 9 5 5 1 3 9 12 8 9 6 9 10 13 7 11 12 9 8 11 13 14 17 18 19 18 16 14 11 11 10 11 21 16 14 9 8 6 5 4 3
Wind_Direction
356 352 348 343 338 337 330 327 324 324 323 320 322 322 324 318 301 200 213 73 159 143 239 203 215 225 236 255 250 277 50 306 100 90 110 146 92 71 104 112 57 48 50 120 137
351 348 342 339 338 331 326 326 324 322 322 318 317 317 319 323 271 236 115 107 150 178 221 205 210 216 228 240 240 172 153 249 41 62 96 61 92 123 111 123 116 103 97 122 148
347 343 340 339 335 331 327 327 324 322 320 317 315 313 315 310 262 98 127 149 220 230 259 259 254 210 237 256 226 243 215 108 120 42 312 125 129 158 132 130 128 138 140 148 154
344 340 339 335 332 330 325 323 322 318 317 314 313 311 312 239 268 82 142 172 216 255 242 224 234 225 248 231 221 267 59 336 82 133 165 144 105 118 59 70 115 135 150 154 164
341 338 335 331 329 324 322 321 320 314 314 312 312 316 299 229 76 132 167 191 221 222 233 222 221 228 246 249 203 250 154 174 152 111 24 91 140 93 152 122 126 140 156 162 167
338 335 334 331 327 323 321 318 316 311 310 309 308 315 253 264 63 110 200 225 252 241 213 231 252 288 296 261 247 91 241 189 191 116 194 235 157 177 135 143 143 155 163 171 167
337 333 332 331 325 322 318 316 312 307 304 300 295 284 267 276 344 263 219 246 261 287 261 192 287 258 254 239 249 224 233 198 191 169 204 246 125 178 128 159 161 165 170 171 171
337 334 331 328 322 319 316 309 307 302 291 281 276 261 277 93 314 246 244 237 215 234 259 276 280 268 271 349 224 242 239 227 148 172 207 254 133 256 146 169 173 173 175 172 174
335 331 328 325 322 320 313 307 298 285 263 271 246 239 270 129 216 219 224 253 203 231 221 283 263 249 218 244 231 216 61 304 177 135 329 254 250 108 146 170 178 182 183 176 174
332 330 328 324 321 319 313 284 274 289 225 231 265 262 217 229 119 263 234 258 255 236 228 221 235 236 233 226 239 226 207 199 227 141 214 249 266 142 156 183 186 187 189 182 182
332 329 326 323 321 318 322 266 213 192 220 259 61 257 157 212 207 218 197 215 239 237 244 201 228 228 236 232 266 323 225 4 56 83 261 265 245 246 151 196 195 183 186 192 188
331 328 325 323 318 314 285 290 29 340 298 261 248 256 274 267 242 227 197 220 210 237 214 221 230 242 235 312 263 277 275 258 223 203 285 261 241 223 131 195 218 185 187 198 190
329 326 324 321 316 286 292 26 325 300 258 256 221 233 219 209 237 212 205 214 228 232 238 244 243 218 242 233 255 250 262 257 258 171 244 275 251 182 204 208 191 274 190 190 207
327 325 325 322 291 347 237 4 305 287 268 181 203 219 198 224 230 241 195 224 225 250 228 245 246 234 237 242 227 254 244 258 255 248 260 202 285 188 190 188 186 231 202 196 193
325 324 321 328 316 247 29 315 315 243 268 122 133 82 214 205 97 184 198 205 247 207 259 223 237 199 232 228 238 252 292 222 241 262 270 251 239 109 174 229 179 98 15 174 177
322 319 322 215 221 286 296 302 243 231 245 152 157 196 196 211 224 126 199 230 239 250 208 266 215 227 234 232 244 244 249 244 253 254 256 226 265 275 312 111 131 108 141 157 168
316 311 286 308 343 341 292 238 225 240 151 209 196 198 208 191 217 194 191 203 216 211 219 216 212 232 248 211 218 231 221 219 218 224 242 69 253 292 93 76 23 90 155 163 156
315 311 190 261 312 280 248 222 244 233 243 70 288 196 231 219 198 203 212 207 219 223 260 212 200 208 182 236 191 219 240 251 260 266 253 147 226 196 78 110 130 174 180 142 155
311 204 222 161 230 250 233 225 217 254 304 156 214 241 212 215 237 212 216 219 214 225 247 240 242 185 204 211 251 190 228 259 296 277 283 288 156 150 155 131 139 126 148 138 133
286 232 128 155 205 222 231 243 228 342 342 269 255 216 233 190 195 228 203 228 227 199 226 270 274 174 180 244 231 274 220 233 234 274 266 275 120 107 163 164 128 136 134 136 149
247 230 107 183 205 216 222 232 240 136 284 276 261 273 259 319 220 225 220 217 226 215 215 237 241 196 175 202 218 205 246 248 277 302 304 244 232 113 109 120 123 132 140 155 150
277 235 129 197 206 217 221 235 10 254 215 257 285 300 294 246 253 254 219 220 180 253 202 228 228 255 202 223 223 246 217 232 245 230 264 297 79 151 109 117 137 122 136 131 157
257 91 163 223 233 202 207 240 233 239 240 232 238 240 287 269 261 274 240 75 120 250 218 218 230 240 251 176 219 251 250 256 245 256 277 273 266 133 125 127 127 137 141 147 147
275 185 152 212 284 300 194 228 212 208 269 259 270 283 266 249 237 278 246 219 228 251 353 291 239 241 247 228 240 194 235 244 240 250 233 240 131 136 152 141 141 144 153 150 151
241 2 6 199 195 220 250 351 233 220 212 226 229 237 246 250 254 237 242 259 189 193 247 243 246 250 258 273 288 277 201 223 230 244 241 42 14 117 155 137 139 145 150 160 168
307 311 187 98 348 236 142 191 270 217 265 225 235 257 218 228 257 274 313 233 248 175 225 222 235 252 257 253 262 248 253 254 213 229 238 209 147 283 321 92 123 142 163 171 159
14 246 278 121 197 233 143 78 60 321 241 265 321 284 216 248 315 311 340 318 297 300 253 229 237 239 247 242 247 236 248 211 224 234 259 240 130 171 210 120 135 147 152 139 118